Overview Statistics Trail Chart Weather Telemetry Raw packets
 

This is the latest recevied weather packets stored in our database for station/object DL0BB-10. If no packets are shown the sender has not sent any weather packets the latest 10 day(s).

<< 16 17 18 19 20 21 22 >>
Time Temp. Humidity Pressure Rain* Wind** Luminosity Snow
1788321589 25.56° C 38% 1021.6 hPa - - - -
1788320689 24.44° C 40% 1021.7 hPa - - - -
1788319788 24.44° C 40% 1021.6 hPa - - - -
1788318888 25° C 39% 1021.6 hPa - - - -
1788317987 25.56° C 38% 1021.5 hPa - - - -
1788317097 24.44° C 40% 1021.5 hPa - - - -
1788316197 25° C 40% 1021.7 hPa - - - -
1788315297 25° C 39% 1021.7 hPa - - - -
1788314397 25.56° C 38% 1021.6 hPa - - - -
1788313497 25° C 40% 1021.5 hPa - - - -
1788312596 25° C 40% 1021.4 hPa - - - -
1788311696 25.56° C 39% 1021.6 hPa - - - -
1788310796 25.56° C 39% 1021.6 hPa - - - -
1788309896 25° C 40% 1021.8 hPa - - - -
1788308996 25° C 40% 1021.7 hPa - - - -
1788308096 25.56° C 39% 1021.9 hPa - - - -
1788307196 25.56° C 39% 1021.8 hPa - - - -
1788306296 25° C 40% 1022 hPa - - - -
1788305396 25.56° C 40% 1021.9 hPa - - - -
1788304496 26.11° C 39% 1022 hPa - - - -
1788303595 25.56° C 40% 1022 hPa - - - -
1788302695 25.56° C 41% 1022.1 hPa - - - -
1788301795 25.56° C 40% 1022.1 hPa - - - -
1788300895 26.11° C 39% 1022 hPa - - - -
1788299087 25.56° C 41% 1022.1 hPa - - - -

* Rain since midnight (hover to see other rain measurements)
** Current wind speed in m/s (hover to see current wind gust speed)